"read_dt","SO2 (ppb)","flags","PMT voltage (V)","lamp voltage (V)","lamp intensity (Hz)","internal temp (C)","react chamber temp (C)","sample flow (l/min)","pres (mmHg)","SO2 bkg (ppb)","SO2 coefficient"
2013-07-03 09:08:00,1549E-4,5C000000,-0724,0925,11269,027.8,045.4,0.472,728.6,01.19,0.508
2013-07-03 09:09:00,2318E-4,5C000000,-0724,0925,11135,027.9,045.4,0.472,728.5,01.19,0.508
2013-07-03 09:10:00,1831E-4,5C000000,-0724,0926,11232,027.9,045.4,0.472,728.6,01.19,0.508
2013-07-03 09:11:00,2746E-4,5C000000,-0724,0925,11310,027.9,045.4,0.472,728.5,01.19,0.508
2013-07-03 09:12:00,1828E-4,5C000000,-0724,0924,11402,027.9,045.4,0.472,728.5,01.19,0.508
2013-07-03 09:13:00,2848E-4,5C000000,-0724,0925,11319,028.0,045.4,0.472,728.6,01.19,0.508
2013-07-03 09:14:00,2839E-4,5C000000,-0724,0925,11219,028.0,045.4,0.472,728.5,01.19,0.508
2013-07-03 09:15:00,1923E-4,5C000000,-0724,0925,11225,028.0,045.4,0.472,728.5,01.19,0.508
2013-07-03 09:16:00,3437E-4,5C000000,-0724,0925,11222,028.0,045.4,0.472,728.5,01.19,0.508
2013-07-03 09:17:00,1747E-4,5C000000,-0724,0925,11197,028.0,045.4,0.472,728.5,01.19,0.508
2013-07-03 09:18:00,2127E-4,5C000000,-0724,0925,11288,028.1,045.4,0.472,728.5,01.19,0.508
2013-07-03 09:19:00,3158E-4,5C000000,-0724,0925,11201,028.1,045.4,0.472,728.5,01.19,0.508
2013-07-03 09:20:00,2318E-4,5C000000,-0724,0924,11216,028.1,045.4,0.472,728.5,01.19,0.508
2013-07-03 09:21:00,1883E-4,5C000000,-0724,0925,11366,028.2,045.4,0.472,728.4,01.19,0.508
2013-07-03 09:22:00,2603E-4,5C000000,-0724,0926,11135,028.2,045.4,0.472,728.5,01.19,0.508
2013-07-03 09:23:00,1438E-4,5C000000,-0724,0926,11160,028.2,045.4,0.471,728.4,01.19,0.508
2013-07-03 09:24:00,3327E-4,5C000000,-0724,0925,11390,028.2,045.4,0.471,728.5,01.19,0.508
2013-07-03 09:25:00,2914E-4,5C000000,-0724,0925,11093,028.2,045.4,0.471,728.5,01.19,0.508
2013-07-03 09:26:00,1967E-4,5C000000,-0724,0925,11406,028.3,045.4,0.471,728.5,01.19,0.508
2013-07-03 09:27:00,2284E-4,5C000000,-0724,0925,11232,028.2,045.4,0.471,728.5,01.19,0.508
2013-07-03 09:28:00,2288E-4,5C000000,-0724,0925,11208,028.3,045.4,0.471,728.5,01.19,0.508
2013-07-03 09:29:00,1731E-4,5C000000,-0724,0925,11232,028.3,045.4,0.471,728.5,01.19,0.508
2013-07-03 09:30:00,2819E-4,5C000000,-0724,0925,11303,028.4,045.4,0.471,728.5,01.19,0.508
2013-07-03 09:31:00,2072E-4,5C000000,-0724,0926,11291,028.3,045.4,0.471,728.5,01.19,0.508
2013-07-03 09:32:00,3296E-4,5C000000,-0724,0925,11177,028.5,045.4,0.471,728.5,01.19,0.508
2013-07-03 09:33:00,2173E-4,5C000000,-0724,0925,11301,028.5,045.4,0.471,728.5,01.19,0.508
2013-07-03 09:34:00,1790E-4,5C000000,-0724,0925,11249,028.6,045.4,0.471,728.5,01.19,0.508
2013-07-03 09:35:00,3445E-4,5C000000,-0724,0926,11310,028.6,045.4,0.471,728.5,01.19,0.508
2013-07-03 09:36:00,3136E-4,5C000000,-0724,0926,11323,028.7,045.4,0.471,728.5,01.19,0.508
2013-07-03 09:37:00,2595E-4,5C000000,-0724,0926,11343,028.7,045.4,0.471,728.5,01.19,0.508
2013-07-03 09:38:00,2203E-4,5C000000,-0724,0927,11355,028.8,045.4,0.471,728.5,01.19,0.508
2013-07-03 09:39:00,2653E-4,5C000000,-0724,0927,11238,028.8,045.4,0.471,728.5,01.19,0.508
2013-07-03 09:40:00,2295E-4,5C000000,-0724,0925,11304,028.9,045.4,0.471,728.5,01.19,0.508
2013-07-03 09:41:00,3469E-4,5C000000,-0724,0927,11139,028.9,045.4,0.471,728.5,01.19,0.508
2013-07-03 09:42:00,1665E-4,5C000000,-0724,0927,11196,028.9,045.4,0.471,728.5,01.19,0.508
2013-07-03 09:43:00,1364E-4,5C000000,-0724,0927,11268,028.8,045.4,0.471,728.6,01.19,0.508
2013-07-03 09:44:00,1376E-4,5C000000,-0724,0926,11281,028.9,045.4,0.471,728.6,01.19,0.508
2013-07-03 09:45:00,2711E-4,5C000000,-0724,0927,11179,028.9,045.4,0.471,728.6,01.19,0.508
2013-07-03 09:46:00,3257E-4,5C000000,-0724,0928,11293,029.0,045.4,0.471,728.6,01.19,0.508
2013-07-03 09:47:00,2263E-4,5C000000,-0724,0927,10862,029.0,045.4,0.471,728.6,01.19,0.508
2013-07-03 09:48:00,2118E-4,5C000000,-0724,0926,11301,029.1,045.4,0.471,728.6,01.19,0.508
2013-07-03 09:49:00,2315E-4,5C000000,-0724,0927,11355,029.1,045.4,0.471,728.6,01.19,0.508
2013-07-03 09:50:00,2976E-4,5C000000,-0724,0926,11273,029.1,045.4,0.470,728.5,01.19,0.508
2013-07-03 09:51:00,1849E-4,5C000000,-0724,0927,11259,029.1,045.5,0.470,728.5,01.19,0.508
2013-07-03 09:52:00,1391E-4,5C000000,-0724,0927,11243,029.2,045.4,0.470,728.6,01.19,0.508
2013-07-03 09:53:00,1138E-4,5C000000,-0724,0927,11138,029.2,045.4,0.470,728.6,01.19,0.508
2013-07-03 09:54:00,2284E-4,5C000000,-0724,0927,11344,029.2,045.4,0.470,728.6,01.19,0.508
2013-07-03 09:55:00,1331E-4,5C000000,-0724,0927,11103,029.3,045.4,0.470,728.6,01.19,0.508
2013-07-03 09:56:00,2000E-4,5C000000,-0724,0927,11313,029.3,045.4,0.470,728.6,01.19,0.508
2013-07-03 09:57:00,2181E-4,5C000000,-0724,0927,11314,029.3,045.4,0.470,728.6,01.19,0.508
2013-07-03 09:58:00,2567E-4,5C000000,-0724,0928,11167,029.3,045.5,0.470,728.6,01.19,0.508
2013-07-03 09:59:00,2612E-4,5C000000,-0724,0927,11309,029.4,045.5,0.470,728.6,01.19,0.508
2013-07-03 10:00:00,2583E-4,5C000000,-0724,0928,11302,029.4,045.4,0.470,728.6,01.19,0.508
2013-07-03 10:01:00,2140E-4,5C000000,-0724,0927,11234,029.4,045.4,0.470,728.6,01.19,0.508
2013-07-03 10:02:00,2781E-4,5C000000,-0724,0927,11234,029.4,045.4,0.470,728.6,01.19,0.508
2013-07-03 10:03:00,2233E-4,5C000000,-0724,0927,11134,029.4,045.5,0.470,728.6,01.19,0.508
2013-07-03 10:04:00,1557E-4,5C000000,-0724,0927,11283,029.5,045.5,0.470,728.6,01.19,0.508
2013-07-03 10:05:00,2100E-4,5C000000,-0724,0927,11037,029.5,045.5,0.470,728.6,01.19,0.508
2013-07-03 10:06:00,2384E-4,5C000000,-0724,0927,11206,029.5,045.5,0.470,728.6,01.19,0.508
2013-07-03 10:07:00,2856E-4,5C000000,-0724,0927,11318,029.5,045.4,0.470,728.6,01.19,0.508
2013-07-03 10:08:00,2272E-4,5C000000,-0724,0928,11332,029.6,045.4,0.470,728.6,01.19,0.508
2013-07-03 10:09:00,2706E-4,5C000000,-0724,0927,11229,029.6,045.4,0.470,728.5,01.19,0.508
2013-07-03 10:10:00,2846E-4,5C000000,-0724,0927,11088,029.6,045.5,0.470,728.5,01.19,0.508
2013-07-03 10:11:00,1960E-4,5C000000,-0724,0928,11259,029.6,045.5,0.470,728.5,01.19,0.508
2013-07-03 10:12:00,2729E-4,5C000000,-0724,0928,11300,029.5,045.4,0.470,728.6,01.19,0.508
2013-07-03 10:13:00,3018E-4,5C000000,-0724,0928,11250,029.6,045.4,0.470,728.6,01.19,0.508
2013-07-03 10:14:00,2442E-4,5C000000,-0724,0928,11202,029.6,045.5,0.470,728.6,01.19,0.508
2013-07-03 10:15:00,2794E-4,5C000000,-0724,0928,11345,029.7,045.5,0.470,728.5,01.19,0.508
2013-07-03 10:16:00,2423E-4,5C000000,-0724,0928,11088,029.6,045.5,0.470,728.5,01.19,0.508
2013-07-03 10:17:00,2380E-4,5C000000,-0724,0928,11278,029.7,045.5,0.470,728.5,01.19,0.508
2013-07-03 10:18:00,2448E-4,5C000000,-0724,0928,11163,029.7,045.4,0.470,728.6,01.19,0.508
2013-07-03 10:19:00,1252E-4,5C000000,-0724,0928,11293,029.7,045.5,0.470,728.6,01.19,0.508
2013-07-03 10:20:00,3345E-4,5C000000,-0724,0928,11159,029.7,045.5,0.470,728.6,01.19,0.508
2013-07-03 10:21:00,3031E-4,5C000000,-0724,0928,11271,029.7,045.5,0.470,728.6,01.19,0.508
2013-07-03 10:22:00,2562E-4,5C000000,-0724,0928,11296,029.7,045.5,0.470,728.6,01.19,0.508
2013-07-03 10:23:00,2348E-4,5C000000,-0724,0928,10995,029.8,045.5,0.470,728.6,01.19,0.508
2013-07-03 10:24:00,2946E-4,5C000000,-0724,0927,11279,029.7,045.5,0.470,728.6,01.19,0.508
2013-07-03 10:25:00,1406E-4,5C000000,-0724,0928,11320,029.7,045.4,0.470,728.5,01.19,0.508
2013-07-03 10:26:00,2969E-4,5C000000,-0724,0928,11220,029.8,045.5,0.470,728.5,01.19,0.508
2013-07-03 10:27:00,2611E-4,5C000000,-0724,0927,11322,029.7,045.5,0.470,728.5,01.19,0.508
2013-07-03 10:28:00,2715E-4,5C000000,-0724,0928,11358,029.8,045.4,0.470,728.5,01.19,0.508
2013-07-03 10:29:00,2622E-4,5C000000,-0724,0927,11232,029.8,045.5,0.470,728.5,01.19,0.508
2013-07-03 10:30:00,2241E-4,5C000000,-0724,0927,11334,029.8,045.5,0.470,728.5,01.19,0.508
2013-07-03 10:31:00,2527E-4,5C000000,-0724,0927,11231,029.7,045.5,0.470,728.6,01.19,0.508
2013-07-03 10:32:00,3031E-4,5C000000,-0724,0928,11200,029.7,045.5,0.470,728.5,01.19,0.508
2013-07-03 10:33:00,2638E-4,5C000000,-0724,0927,11266,029.7,045.5,0.470,728.6,01.19,0.508
2013-07-03 10:34:00,1758E-4,5C000000,-0724,0928,11280,029.7,045.5,0.470,728.6,01.19,0.508
2013-07-03 10:35:00,2374E-4,5C000000,-0724,0928,11284,029.7,045.5,0.470,728.6,01.19,0.508
2013-07-03 10:36:00,1906E-4,5C000000,-0724,0928,11250,029.7,045.5,0.470,728.6,01.19,0.508
2013-07-03 10:37:00,2490E-4,5C000000,-0724,0928,11218,029.7,045.5,0.470,728.6,01.19,0.508
2013-07-03 10:38:00,2978E-4,5C000000,-0724,0929,11200,029.7,045.4,0.470,728.6,01.19,0.508
2013-07-03 10:39:00,2764E-4,5C000000,-0724,0928,11164,029.8,045.5,0.470,728.6,01.19,0.508
2013-07-03 10:40:00,2111E-4,5C000000,-0724,0928,11358,029.8,045.5,0.470,728.6,01.19,0.508
2013-07-03 10:41:00,2541E-4,5C000000,-0724,0927,11226,029.8,045.5,0.470,728.6,01.19,0.508
2013-07-03 10:42:00,1850E-4,5C000000,-0724,0928,11164,029.8,045.5,0.470,728.6,01.19,0.508
2013-07-03 10:43:00,2306E-4,5C000000,-0724,0928,11327,029.8,045.5,0.470,728.6,01.19,0.508
2013-07-03 10:44:00,2048E-4,5C000000,-0724,0928,11060,029.8,045.5,0.470,728.6,01.19,0.508
2013-07-03 10:45:00,2977E-4,5C000000,-0724,0928,11259,029.9,045.5,0.470,728.6,01.19,0.508
2013-07-03 10:46:00,2195E-4,5C000000,-0724,0928,11199,029.9,045.5,0.470,728.6,01.19,0.508
2013-07-03 10:47:00,2784E-4,5C000000,-0724,0929,11406,029.8,045.5,0.470,728.6,01.19,0.508
2013-07-03 10:48:00,2254E-4,5C000000,-0724,0928,11218,029.8,045.5,0.469,728.6,01.19,0.508
2013-07-03 10:49:00,2825E-4,5C000000,-0724,0928,11144,029.9,045.5,0.470,728.7,01.19,0.508
2013-07-03 10:50:00,2550E-4,5C000000,-0724,0929,11235,029.9,045.5,0.470,728.7,01.19,0.508
2013-07-03 10:51:00,1551E-4,5C000000,-0724,0928,11264,029.9,045.5,0.469,728.7,01.19,0.508
2013-07-03 10:52:00,2313E-4,5C000000,-0724,0928,11323,029.9,045.5,0.469,728.6,01.19,0.508
2013-07-03 10:53:00,2968E-4,5C000000,-0724,0929,11234,029.9,045.5,0.469,728.6,01.19,0.508
2013-07-03 10:54:00,2061E-4,5C000000,-0724,0927,11230,029.9,045.5,0.469,728.6,01.19,0.508
2013-07-03 10:55:00,2318E-4,5C000000,-0724,0929,11266,029.9,045.5,0.469,728.6,01.19,0.508
2013-07-03 10:56:00,2012E-4,5C000000,-0724,0927,11336,029.9,045.5,0.470,728.7,01.19,0.508
2013-07-03 10:57:00,2420E-4,5C000000,-0724,0928,11300,029.9,045.5,0.469,728.7,01.19,0.508
2013-07-03 10:58:00,2554E-4,5C000000,-0724,0927,11171,029.9,045.5,0.469,728.7,01.19,0.508
2013-07-03 10:59:00,3104E-4,5C000000,-0724,0928,11232,029.9,045.5,0.469,728.7,01.19,0.508
2013-07-03 11:00:00,1880E-4,5C000000,-0724,0928,11186,029.9,045.5,0.469,728.6,01.19,0.508
2013-07-03 11:01:00,2716E-4,5C000000,-0724,0928,11196,030.0,045.5,0.469,728.7,01.19,0.508
2013-07-03 11:02:00,2004E-4,5C000000,-0724,0928,11118,030.0,045.5,0.469,728.7,01.19,0.508
2013-07-03 11:03:00,2731E-4,5C000000,-0724,0928,11074,030.0,045.5,0.469,728.7,01.19,0.508
2013-07-03 11:04:00,2938E-4,5C000000,-0724,0928,11356,030.0,045.5,0.469,728.7,01.19,0.508
2013-07-03 11:05:00,2331E-4,5C000000,-0724,0928,11304,030.0,045.5,0.469,728.7,01.19,0.508
2013-07-03 11:06:00,2499E-4,5C000000,-0724,0928,11197,030.0,045.5,0.469,728.7,01.19,0.508
2013-07-03 11:07:00,3670E-4,5C000000,-0724,0928,11229,030.0,045.5,0.469,728.7,01.19,0.508
2013-07-03 11:08:00,1897E-4,5C000000,-0724,0928,11095,030.0,045.5,0.469,728.7,01.19,0.508
2013-07-03 11:09:00,2192E-4,5C000000,-0724,0929,11254,030.1,045.5,0.469,728.7,01.19,0.508
2013-07-03 11:10:00,2964E-4,5C000000,-0724,0928,11239,030.1,045.5,0.469,728.7,01.19,0.508
2013-07-03 11:11:00,2734E-4,5C000000,-0724,0929,11204,030.1,045.5,0.469,728.7,01.19,0.508
2013-07-03 11:12:00,2472E-4,5C000000,-0724,0928,11339,030.1,045.5,0.469,728.7,01.19,0.508
2013-07-03 11:13:00,2484E-4,5C000000,-0724,0929,11109,030.1,045.5,0.469,728.7,01.19,0.508
2013-07-03 11:14:00,2419E-4,5C000000,-0724,0929,11294,030.1,045.5,0.469,728.8,01.19,0.508
2013-07-03 11:15:00,2148E-4,5C000000,-0724,0928,11110,030.0,045.5,0.469,728.7,01.19,0.508
2013-07-03 11:16:00,2173E-4,5C000000,-0724,0928,11236,030.0,045.5,0.469,728.8,01.19,0.508
2013-07-03 11:17:00,3142E-4,5C000000,-0724,0929,11186,030.0,045.5,0.469,728.8,01.19,0.508
2013-07-03 11:18:00,2852E-4,5C000000,-0724,0929,11297,030.1,045.4,0.469,728.7,01.19,0.508
2013-07-03 11:19:00,2090E-4,5C000000,-0724,0929,11199,030.1,045.5,0.469,728.8,01.19,0.508
2013-07-03 11:20:00,1776E-4,5C000000,-0724,0929,11161,030.1,045.5,0.469,728.8,01.19,0.508
2013-07-03 11:21:00,1959E-4,5C000000,-0724,0928,11319,030.1,045.5,0.469,728.8,01.19,0.508
2013-07-03 11:22:00,3245E-4,5C000000,-0724,0929,10996,030.1,045.5,0.469,728.8,01.19,0.508
2013-07-03 11:23:00,4054E-4,5C000000,-0724,0929,11284,030.1,045.5,0.469,728.8,01.19,0.508
2013-07-03 11:24:00,3001E-4,5C000000,-0724,0928,11166,030.1,045.5,0.469,728.8,01.19,0.508
2013-07-03 11:25:00,1647E-4,5C000000,-0724,0929,11298,030.1,045.5,0.469,728.8,01.19,0.508
2013-07-03 11:26:00,2490E-4,5C000000,-0724,0930,11191,030.1,045.5,0.469,728.8,01.19,0.508
2013-07-03 11:27:00,2813E-4,5C000000,-0724,0929,11226,030.1,045.5,0.469,728.8,01.19,0.508
2013-07-03 11:28:00,2549E-4,5C000000,-0724,0929,11195,030.1,045.5,0.469,728.8,01.19,0.508
2013-07-03 11:29:00,1812E-4,5C000000,-0724,0928,11283,030.1,045.5,0.469,728.8,01.19,0.508
2013-07-03 11:30:00,2953E-4,5C000000,-0724,0929,11291,030.1,045.5,0.469,728.8,01.19,0.508
2013-07-03 11:31:00,2620E-4,5C000000,-0724,0929,11241,030.2,045.5,0.469,728.8,01.19,0.508
2013-07-03 11:32:00,3194E-4,5C000000,-0724,0928,11279,030.3,045.5,0.469,728.8,01.19,0.508
2013-07-03 11:33:00,2464E-4,5C000000,-0724,0930,11356,030.3,045.5,0.469,728.7,01.19,0.508
2013-07-03 11:34:00,2987E-4,5C000000,-0724,0929,11072,030.3,045.5,0.469,728.7,01.19,0.508
2013-07-03 11:35:00,2265E-4,5C000000,-0724,0929,11239,030.3,045.5,0.469,728.8,01.19,0.508
2013-07-03 11:36:00,2382E-4,5C000000,-0724,0930,11287,030.4,045.5,0.469,728.8,01.19,0.508
2013-07-03 11:37:00,3169E-4,5C000000,-0724,0929,11225,030.4,045.5,0.469,728.7,01.19,0.508
2013-07-03 11:38:00,2072E-4,5C000000,-0724,0929,11207,030.4,045.5,0.469,728.7,01.19,0.508
2013-07-03 11:39:00,2896E-4,5C000000,-0724,0929,11174,030.4,045.5,0.469,728.8,01.19,0.508
2013-07-03 11:40:00,1984E-4,5C000000,-0724,0928,11248,030.4,045.5,0.469,728.8,01.19,0.508
2013-07-03 11:41:00,2985E-4,5C000000,-0724,0929,11247,030.4,045.5,0.469,728.8,01.19,0.508
2013-07-03 11:42:00,3474E-4,5C000000,-0724,0929,11250,030.4,045.5,0.469,728.8,01.19,0.508
2013-07-03 11:43:00,2626E-4,5C000000,-0724,0929,11278,030.4,045.5,0.469,728.7,01.19,0.508
2013-07-03 11:44:00,2447E-4,5C000000,-0724,0929,11111,030.4,045.5,0.469,728.8,01.19,0.508
2013-07-03 11:45:00,2834E-4,5C000000,-0724,0930,11089,030.3,045.5,0.469,728.7,01.19,0.508
2013-07-03 11:46:00,2154E-4,5C000000,-0724,0928,11199,030.3,045.5,0.469,728.7,01.19,0.508
2013-07-03 11:47:00,2945E-4,5C000000,-0724,0929,11152,030.2,045.5,0.469,728.7,01.19,0.508
2013-07-03 11:48:00,2262E-4,5C000000,-0724,0929,11162,030.3,045.5,0.469,728.7,01.19,0.508
2013-07-03 11:49:00,2727E-4,5C000000,-0724,0929,11254,030.3,045.5,0.469,728.7,01.19,0.508
2013-07-03 11:50:00,1841E-4,5C000000,-0724,0929,11141,030.4,045.5,0.469,728.7,01.19,0.508
2013-07-03 11:51:00,2295E-4,5C000000,-0724,0928,11283,030.4,045.5,0.469,728.7,01.19,0.508
2013-07-03 11:52:00,3447E-4,5C000000,-0724,0929,11311,030.4,045.5,0.469,728.7,01.19,0.508
2013-07-03 11:53:00,2476E-4,5C000000,-0724,0930,11161,030.4,045.5,0.469,728.7,01.19,0.508
2013-07-03 11:54:00,2664E-4,5C000000,-0724,0929,11253,030.4,045.5,0.469,728.7,01.19,0.508
2013-07-03 11:55:00,3609E-4,5C000000,-0724,0929,11307,030.4,045.5,0.469,728.7,01.19,0.508
2013-07-03 11:56:00,2591E-4,5C000000,-0724,0928,11231,030.4,045.5,0.469,728.7,01.19,0.508
2013-07-03 11:57:00,2934E-4,5C000000,-0724,0929,11165,030.4,045.5,0.469,728.7,01.19,0.508
2013-07-03 11:58:00,2983E-4,5C000000,-0724,0930,11275,030.4,045.5,0.469,728.7,01.19,0.508
2013-07-03 11:59:00,2532E-4,5C000000,-0724,0930,11232,030.3,045.5,0.469,728.7,01.19,0.508
2013-07-03 12:00:00,3046E-4,5C000000,-0724,0929,11183,030.3,045.5,0.469,728.7,01.19,0.508
2013-07-03 12:01:00,2229E-4,5C000000,-0724,0929,11261,030.3,045.5,0.469,728.7,01.19,0.508
2013-07-03 12:02:00,3118E-4,5C000000,-0724,0929,11245,030.3,045.5,0.469,728.7,01.19,0.508
2013-07-03 12:03:00,2523E-4,5C000000,-0724,0928,11314,030.2,045.5,0.469,728.7,01.19,0.508
2013-07-03 12:04:00,2736E-4,5C000000,-0724,0929,11275,030.2,045.5,0.469,728.7,01.19,0.508
2013-07-03 12:05:00,3328E-4,5C000000,-0724,0929,11361,030.2,045.5,0.469,728.7,01.19,0.508
2013-07-03 12:06:00,3045E-4,5C000000,-0724,0930,11202,030.2,045.5,0.469,728.7,01.19,0.508
2013-07-03 12:07:00,2246E-4,5C000000,-0724,0929,11339,030.2,045.5,0.469,728.7,01.19,0.508
2013-07-03 12:08:00,3175E-4,5C000000,-0724,0930,11263,030.2,045.5,0.469,728.6,01.19,0.508
2013-07-03 12:09:00,3084E-4,5C000000,-0724,0929,11199,030.2,045.5,0.469,728.7,01.19,0.508
2013-07-03 12:10:00,3110E-4,5C000000,-0724,0928,11191,030.2,045.5,0.469,728.7,01.19,0.508
2013-07-03 12:11:00,3398E-4,5C000000,-0724,0929,11258,030.2,045.5,0.469,728.7,01.19,0.508
2013-07-03 12:12:00,3032E-4,5C000000,-0724,0928,11275,030.2,045.5,0.469,728.7,01.19,0.508
2013-07-03 12:13:00,2225E-4,5C000000,-0724,0929,11339,030.2,045.5,0.469,728.7,01.19,0.508
2013-07-03 12:14:00,2129E-4,5C000000,-0724,0929,11317,030.2,045.5,0.469,728.7,01.19,0.508
2013-07-03 12:15:00,2148E-4,5C000000,-0724,0929,11236,030.1,045.5,0.469,728.7,01.19,0.508
2013-07-03 12:16:00,2424E-4,5C000000,-0724,0929,11338,030.1,045.5,0.469,728.7,01.19,0.508
2013-07-03 12:17:00,2236E-4,5C000000,-0724,0929,11168,030.1,045.5,0.469,728.7,01.19,0.508
2013-07-03 12:18:00,2733E-4,5C000000,-0724,0929,11179,030.1,045.5,0.469,728.7,01.19,0.508
2013-07-03 12:19:00,3060E-4,5C000000,-0724,0929,11259,030.1,045.5,0.469,728.7,01.19,0.508
2013-07-03 12:20:00,2890E-4,5C000000,-0724,0928,11107,030.1,045.5,0.469,728.6,01.19,0.508
2013-07-03 12:21:00,2667E-4,5C000000,-0724,0928,11244,030.1,045.5,0.469,728.6,01.19,0.508
2013-07-03 12:22:00,2500E-4,5C000000,-0724,0929,11314,030.1,045.5,0.469,728.6,01.19,0.508
2013-07-03 12:23:00,2586E-4,5C000000,-0724,0929,11227,030.1,045.5,0.469,728.6,01.19,0.508
2013-07-03 12:24:00,2951E-4,5C000000,-0724,0930,11157,030.1,045.5,0.469,728.6,01.19,0.508
2013-07-03 12:25:00,3487E-4,5C000000,-0724,0929,11230,030.0,045.5,0.469,728.6,01.19,0.508
2013-07-03 12:26:00,2560E-4,5C000000,-0724,0929,11318,030.0,045.5,0.469,728.6,01.19,0.508
2013-07-03 12:27:00,2656E-4,5C000000,-0724,0930,11183,030.0,045.5,0.469,728.6,01.19,0.508
2013-07-03 12:28:00,1874E-4,5C000000,-0724,0929,11255,030.0,045.5,0.469,728.6,01.19,0.508
2013-07-03 12:29:00,2099E-4,5C000000,-0724,0929,11149,030.0,045.5,0.469,728.6,01.19,0.508
2013-07-03 12:30:00,2609E-4,5C000000,-0724,0928,11279,030.0,045.5,0.469,728.6,01.19,0.508
2013-07-03 12:31:00,3145E-4,5C000000,-0724,0928,11247,030.0,045.5,0.469,728.6,01.19,0.508
2013-07-03 12:32:00,3244E-4,5C000000,-0724,0928,11185,030.0,045.5,0.469,728.6,01.19,0.508
2013-07-03 12:33:00,2482E-4,5C000000,-0724,0929,11174,030.0,045.5,0.469,728.6,01.19,0.508
2013-07-03 12:34:00,2790E-4,5C000000,-0724,0928,11300,030.0,045.5,0.469,728.6,01.19,0.508
2013-07-03 12:35:00,2205E-4,5C000000,-0724,0928,10985,030.0,045.5,0.469,728.6,01.19,0.508
2013-07-03 12:36:00,2589E-4,5C000000,-0724,0928,11197,030.0,045.5,0.469,728.6,01.19,0.508
2013-07-03 12:37:00,2542E-4,5C000000,-0724,0928,11188,030.0,045.5,0.469,728.6,01.19,0.508
2013-07-03 12:38:00,2384E-4,5C000000,-0724,0929,11185,029.9,045.5,0.469,728.6,01.19,0.508
2013-07-03 12:39:00,2231E-4,5C000000,-0724,0928,11196,029.9,045.5,0.469,728.6,01.19,0.508
2013-07-03 12:40:00,1925E-4,5C000000,-0724,0928,11261,029.9,045.5,0.469,728.6,01.19,0.508
2013-07-03 12:41:00,2383E-4,5C000000,-0724,0928,11228,029.9,045.5,0.469,728.6,01.19,0.508
2013-07-03 12:42:00,2337E-4,5C000000,-0724,0928,11370,029.9,045.5,0.469,728.6,01.19,0.508
2013-07-03 12:43:00,2254E-4,5C000000,-0724,0928,11159,029.9,045.5,0.469,728.6,01.19,0.508
2013-07-03 12:44:00,3634E-4,5C000000,-0724,0928,11319,029.9,045.5,0.469,728.6,01.19,0.508
2013-07-03 12:45:00,3025E-4,5C000000,-0724,0929,11316,029.9,045.5,0.469,728.6,01.19,0.508
2013-07-03 12:46:00,2126E-4,5C000000,-0724,0929,11284,029.9,045.5,0.469,728.6,01.19,0.508
2013-07-03 12:47:00,1326E-4,5C000000,-0724,0928,11157,029.9,045.5,0.469,728.6,01.19,0.508
2013-07-03 12:48:00,2542E-4,5C000000,-0724,0928,11164,029.9,045.5,0.469,728.6,01.19,0.508
2013-07-03 12:49:00,3392E-4,5C000000,-0724,0928,11287,029.9,045.5,0.469,728.6,01.19,0.508
2013-07-03 12:50:00,2609E-4,5C000000,-0724,0929,11157,029.9,045.4,0.469,728.6,01.19,0.508
2013-07-03 12:51:00,2440E-4,5C000000,-0724,0929,11228,029.9,045.5,0.469,728.6,01.19,0.508
2013-07-03 12:52:00,2719E-4,5C000000,-0724,0929,11120,029.9,045.5,0.469,728.6,01.19,0.508
2013-07-03 12:53:00,2882E-4,5C000000,-0724,0929,11105,029.9,045.5,0.469,728.6,01.19,0.508
2013-07-03 12:54:00,1824E-4,5C000000,-0724,0928,11194,029.8,045.5,0.469,728.6,01.19,0.508
2013-07-03 12:55:00,2338E-4,5C000000,-0724,0928,11110,029.9,045.5,0.469,728.6,01.19,0.508
2013-07-03 12:56:00,2510E-4,5C000000,-0724,0929,11172,029.8,045.5,0.469,728.5,01.19,0.508
2013-07-03 12:57:00,2980E-4,5C000000,-0724,0928,11187,029.9,045.5,0.469,728.5,01.19,0.508
2013-07-03 12:58:00,2865E-4,5C000000,-0724,0928,11322,029.8,045.5,0.469,728.5,01.19,0.508
2013-07-03 12:59:00,2734E-4,5C000000,-0724,0928,11216,029.8,045.5,0.469,728.5,01.19,0.508
2013-07-03 13:00:00,3368E-4,5C000000,-0724,0928,11155,029.8,045.5,0.469,728.5,01.19,0.508
2013-07-03 13:01:00,2452E-4,5C000000,-0724,0928,11134,029.8,045.5,0.469,728.5,01.19,0.508
2013-07-03 13:02:00,2494E-4,5C000000,-0724,0928,11335,029.8,045.5,0.469,728.5,01.19,0.508
2013-07-03 13:03:00,2984E-4,5C000000,-0724,0928,11075,029.8,045.5,0.469,728.5,01.19,0.508
2013-07-03 13:04:00,2504E-4,5C000000,-0724,0928,11202,029.8,045.5,0.469,728.5,01.19,0.508
2013-07-03 13:05:00,2731E-4,5C000000,-0724,0929,11353,029.8,045.5,0.469,728.5,01.19,0.508
2013-07-03 13:06:00,2654E-4,5C000000,-0724,0928,11310,029.8,045.5,0.469,728.5,01.19,0.508
2013-07-03 13:07:00,2740E-4,5C000000,-0724,0928,11232,029.8,045.5,0.469,728.4,01.19,0.508
2013-07-03 13:08:00,2827E-4,5C000000,-0724,0928,11324,029.8,045.5,0.469,728.5,01.19,0.508
2013-07-03 13:09:00,2162E-4,5C000000,-0724,0928,11186,029.8,045.5,0.469,728.4,01.19,0.508
2013-07-03 13:10:00,1594E-4,5C000000,-0724,0928,11245,029.8,045.5,0.469,728.4,01.19,0.508
2013-07-03 13:11:00,2389E-4,5C000000,-0724,0928,11207,029.8,045.5,0.469,728.4,01.19,0.508
2013-07-03 13:12:00,3180E-4,5C000000,-0724,0928,10986,029.8,045.5,0.469,728.4,01.19,0.508
2013-07-03 13:13:00,2360E-4,5C000000,-0724,0928,11290,029.8,045.5,0.469,728.4,01.19,0.508
2013-07-03 13:14:00,2626E-4,5C000000,-0724,0928,11196,029.8,045.5,0.470,728.4,01.19,0.508
2013-07-03 13:15:00,2832E-4,5C000000,-0724,0929,11238,029.7,045.5,0.469,728.4,01.19,0.508
2013-07-03 13:16:00,2791E-4,5C000000,-0724,0928,11344,029.7,045.5,0.469,728.4,01.19,0.508
2013-07-03 13:17:00,2280E-4,5C000000,-0724,0928,11229,029.7,045.5,0.469,728.4,01.19,0.508
2013-07-03 13:18:00,2939E-4,5C000000,-0724,0928,11319,029.7,045.5,0.469,728.4,01.19,0.508
2013-07-03 13:19:00,2019E-4,5C000000,-0724,0929,11292,029.7,045.5,0.469,728.4,01.19,0.508
2013-07-03 13:20:00,1920E-4,5C000000,-0724,0929,11336,029.7,045.5,0.469,728.4,01.19,0.508
2013-07-03 13:21:00,3096E-4,5C000000,-0724,0927,11326,029.7,045.5,0.469,728.4,01.19,0.508
2013-07-03 13:22:00,2908E-4,5C000000,-0724,0928,11201,029.7,045.5,0.469,728.4,01.19,0.508
2013-07-03 13:23:00,2610E-4,5C000000,-0724,0928,11231,029.7,045.5,0.469,728.4,01.19,0.508
2013-07-03 13:24:00,2472E-4,5C000000,-0724,0929,11139,029.7,045.5,0.469,728.3,01.19,0.508
2013-07-03 13:25:00,1953E-4,5C000000,-0724,0928,11218,029.7,045.5,0.470,728.3,01.19,0.508
2013-07-03 13:26:00,2206E-4,5C000000,-0724,0928,11161,029.7,045.5,0.470,728.3,01.19,0.508
2013-07-03 13:27:00,2176E-4,5C000000,-0724,0929,11311,029.7,045.5,0.469,728.3,01.19,0.508
2013-07-03 13:28:00,2407E-4,5C000000,-0724,0928,11292,029.7,045.5,0.470,728.3,01.19,0.508